Powrót do katalogu

SL-6 DEB *

AktywnyHEO
NORAD 48261·DEBRIS·🇷🇺 Russia

Wystrzelony Jul 18, 1980 z Plesetsk Cosmodrome

Loading…

Następne Przeloty (najbliższe 24 godziny)

TLE

ŚwieżeSource: Space-Track

Epoka: Sep 13, 2026, 08:15 UTC

1 48261U 80063E   26256.34406387 -.00000195  00000-0  89871-2 0  9995
2 48261  64.1117 331.9321 7089174 283.7022  12.2375  2.11471381 98875

Śledź SL-6 DEB * w czasie rzeczywistym z AllMySat

Download on the App Store